SL-27 R/B (40354 NORAD) Tracking and Keplerian Element Data

This shows tracking and keplerian element data for the satellite.

Feedback or suggestion? Click here.




ElementValue
Catalog40354
NameSL-27 R/B
Epoch Orbit50964
Epoch Day12.89966717
Epoch Year2024
RAAN187.2867
Inclination74.7279
Eccentricity0.0022759
Argument of Perigee76.6265
Mean Anonmoly283.7494
Mean Motion15.62047847
Decay Rate0.0002862
L11 40354U 14084B 24012.89966717 .00028620 00000+0 32277-3 0 9996
L22 40354 74.7279 187.2867 0022759 76.6265 283.7494 15.62047847509645



Live tracking and technical data element details for SL-27 R/B (NORAD 40354). SL-27 R/B can be tracked NOW for your location showing map with azimuth and elevation plus other details from your city location.







IsCatalogInMostPopularTable: catalog: 40354, numindb: 590
Update: records affected: 1



GetName: 40354 SL-27 R/B

Hit Count: updated at: Sun, 14 Apr 2024 23:14:23 GMT